Volver al catálogo

COSMOS 2531

ActivoNavegaciónPO
NORAD 43752·PAYLOAD·🇷🇺 Russia

Lanzado Nov 30, 2018 desde Plesetsk Cosmodrome

Loading…

Próximos Pases (próximas 24 horas)

TLE

ActualizadoSource: Space-Track

Época: Sep 14, 2026, 16:02 UTC

1 43752U 18097B   26257.66830672  .00000048  00000-0  27508-3 0  9993
2 43752  82.5240 167.8503 0015366 218.1827 141.8166 12.42914706353424

Sigue COSMOS 2531 en tiempo real con AllMySat

Download on the App Store